Weather History for Las Vegas, NV

Change the Weather History Date:

Friday, July 5, 2013

  Actual Average Record
Temperature  
Mean Temperature 76 °F -  
Max Temperature 93 °F - - ()
Min Temperature 59 °F - - ()
Cooling Degree Days 11    
Growing Degree Days 26 (Base 50)    
Moisture  
Dew Point 38 °F    
Average Humidity 27    
Maximum Humidity 64    
Minimum Humidity 11    
Precipitation  
Precipitation 0.00 in - - ()
Sea Level Pressure  
Sea Level Pressure 30.24 in    
Wind  
Wind Speed 10 mph (WSW)    
Max Wind Speed 26 mph    
Max Gust Speed 46 mph    
Visibility 10 miles    
Events      
T = Trace of Precipitation, MM = Missing Value Source: NWS Daily Summary

Daily Weather History Graph

Daily Weather History Graph

Search for Another Location

Airport:

Trip Planner

Search our weather history database for the weather conditions in past years. The results will help you decide how hot, cold, wet, or windy it might be!

Date:

Astronomy

Jul. 05, 2013 Rise Set
Actual Time 5:29 AM PDT 8:09 PM PDT
Civil Twilight 4:58 AM PDT 8:40 PM PDT
Nautical Twilight 4:20 AM PDT 9:19 PM PDT
Astronomical Twilight 3:36 AM PDT 10:02 PM PDT
Moon 3:31 AM PDT (7/5) 6:09 PM PDT (7/5)
Length of Visible Light 15h 42m
Length of Day
14h 40m
Waning Crescent, 6% of the Moon is Illuminated
Jul 5
Waning Crescent
Jul 8
New
Jul 15
First Quarter
Jul 22
Full
Jul 29
Last Quarter

Hourly Weather History & Observations

Time (PDT) Temp. Dew Point Humidity Pressure Visibility Wind Dir Wind Speed Gust Speed Precip Events Conditions
12:56 AM 64.9 °F 44.1 °F 47% 30.30 in 10.0 mi WNW 6.9 mph - N/A   Unknown
2:56 AM 61.0 °F 45.0 °F 56% 30.29 in 10.0 mi WNW 5.8 mph - N/A   Unknown
3:56 AM 59.0 °F 46.9 °F 64% 30.28 in 10.0 mi WNW 4.6 mph - N/A   Unknown
4:56 AM 59.0 °F 45.0 °F 60% 30.28 in 10.0 mi NW 6.9 mph - N/A   Unknown
5:56 AM 61.0 °F 45.0 °F 56% 30.27 in 10.0 mi NW 6.9 mph - N/A   Unknown
6:56 AM 66.9 °F 45.0 °F 45% 30.28 in 10.0 mi SSE 3.5 mph - N/A   Unknown
7:56 AM 72.0 °F 45.0 °F 38% 30.29 in 10.0 mi Calm Calm - N/A   Unknown
8:56 AM 77.0 °F 45.0 °F 32% 30.29 in 10.0 mi Calm Calm - N/A   Unknown
9:56 AM 82.0 °F 43.0 °F 25% 30.27 in 10.0 mi Calm Calm - N/A   Unknown
10:56 AM 87.1 °F 41.0 °F 20% 30.27 in 10.0 mi Variable 5.8 mph - N/A   Unknown
11:56 AM 89.1 °F 39.0 °F 17% 30.26 in 10.0 mi WSW 11.5 mph 21.9 mph N/A   Unknown
12:56 PM 93.0 °F 32.0 °F 12% 30.24 in 10.0 mi SW 23.0 mph 31.1 mph N/A   Unknown
1:56 PM 91.0 °F 30.0 °F 11% 30.23 in 10.0 mi SW 21.9 mph 29.9 mph N/A   Unknown
2:56 PM 91.9 °F 30.0 °F 11% 30.22 in 10.0 mi SSW 26.5 mph 46.0 mph N/A   Unknown
3:56 PM 91.0 °F 30.9 °F 12% 30.20 in 10.0 mi SW 19.6 mph 34.5 mph N/A   Unknown
4:56 PM 91.9 °F 32.0 °F 12% 30.19 in 10.0 mi SW 23.0 mph 34.5 mph N/A   Unknown
4:58 PM 91.9 °F 32.0 °F 12% 30.19 in 10.0 mi SW 23.0 mph 34.5 mph N/A   Unknown
5:00 PM 91.9 °F 32.0 °F 12% 30.19 in 10.0 mi SW 23.0 mph 34.5 mph N/A   Unknown
5:56 PM 90.0 °F 34.0 °F 14% 30.18 in 10.0 mi SSW 24.2 mph 36.8 mph N/A   Unknown
6:56 PM 88.0 °F 32.0 °F 14% 30.18 in 10.0 mi SW 21.9 mph 26.5 mph N/A   Unknown
7:56 PM 86.0 °F 34.0 °F 16% 30.19 in 10.0 mi SSW 17.3 mph 25.3 mph N/A   Unknown
8:56 PM 84.0 °F 34.0 °F 17% 30.21 in 10.0 mi SSW 11.5 mph - N/A   Unknown
9:56 PM 82.0 °F 35.1 °F 18% 30.23 in 10.0 mi South 8.1 mph - N/A   Unknown
10:56 PM 79.0 °F 35.1 °F 20% 30.24 in 10.0 mi WSW 10.4 mph - N/A   Unknown
11:56 PM 72.0 °F 37.0 °F 28% 30.25 in 10.0 mi NW 3.5 mph - N/A   Unknown